Regional Weather Roundup
Issued by NWS

Home | Current Version | Previous Version | Text Only | Print | Product List | Glossary Off
Versions: 1 2 3 4 5 6 7 8 9 10 11 12 13 14 15 16 17 18 19 20 21 22 23 24 25 26 27 28 29 30 31 32 33 34 35 36 37 38 39 40 41 42 43 44 45 46 47 48 49 50

000
ASUS43 KLMK 221502
RWRKY
KENTUCKY REGIONAL WEATHER ROUNDUP
NATIONAL WEATHER SERVICE LOUISVILLE KY
1100 AM EDT MON SEP 22 2014

NOTE "FAIR" INDICATES FEW OR NO CLOUDS BELOW 12,000 FEET
WITH NO SIGNIFICANT WEATHER AND/OR OBSTRUCTIONS TO VISIBILITY.

KYZ001>023-026-027-061>063-070>075-221600-
WESTERN AND SOUTH CENTRAL KENTUCKY

CITY           SKY/WX    TMP DP  RH WIND       PRES   REMARKS
PADUCAH        SUNNY     68  54  60 NE7       30.24R
HENDERSON      MOSUNNY   61  48  63 NE7       30.26S
OWENSBORO      MOSUNNY   62  51  67 E12       30.25S
HOPKINSVILLE   SUNNY     65  51  60 NE8       30.23R
BOWLING GREEN  SUNNY     63  50  62 E10       30.23R
GLASGOW        SUNNY     62  47  58 NE6       30.22R
$$

KYZ024-025-028>034-038-045-046-053-221600-
NORTH CENTRAL KENTUCKY

CITY           SKY/WX    TMP DP  RH WIND       PRES   REMARKS
LOUISVILLE/SDF MOSUNNY   59  44  57 N13       30.25R
LOUISVILLE/LOU MOSUNNY   58  44  60 N12       30.26R
FORT KNOX      MOSUNNY   57  46  67 NE9       30.24R
$$

KYZ035>037-039>044-047>052-055>060-089>105-221600-
NORTHEAST KENTUCKY

CITY           SKY/WX    TMP DP  RH WIND       PRES   REMARKS
LEXINGTON      PTSUNNY   57  46  66 NW8       30.23R
COVINGTON      PTSUNNY   54  42  64 N8        30.24R
FRANKFORT      SUNNY     57  46  66 VRB6      30.22R
$$

KYZ054-064>069-076>088-106>120-221600-
SOUTHEAST KENTUCKY

CITY           SKY/WX    TMP DP  RH WIND       PRES   REMARKS
JACKSON        PTSUNNY   59  48  67 VRB3      30.21R
LONDON         SUNNY     61  48  62 VRB7      30.21R
SOMERSET       MOSUNNY   61  48  63 N7        30.22R
MIDDLESBORO    MOSUNNY   62  49  61 NE5       30.20R
MONTICELLO     SUNNY     64  49  58 CALM      30.22R
$$




USA.gov is the U.S. government's official web portal to all federal, state and local government web resources and services.